When you browse on this site, cookies collect data to enhance your experience and personalize the content and advertising you see.
Visit our Privacy Policy to learn more. By continuing to use the site, you agree to this use of cookies and data.
  • In Österreich
  • Länderverzeichnis
  • Für 7 Tage
  • Wassertemperatur
  • Satellitenkarten
  • Wetterkarte
  • News
  • Widgets
  • user-avatar
    Anmelden

    Stündliche Wetter Hobart

    Heute, 21 März, Donnerstag

    Zeit Temperatur Niederschläge Wind Luftdruck Luftfeuchtigkeit
    00:00 +16°C° 0.1 mm 0 m/S 750 mmHg 95%
    01:00 +16°C° 0.1 mm 0 m/S 750 mmHg 95%
    02:00 +15°C° 0 mm 0 m/S 750 mmHg 96%
    03:00 +15°C° 0 mm 0 m/S 750 mmHg 96%
    04:00 +15°C° 0 mm 0 m/S 750 mmHg 97%
    05:00 +15°C° 0 mm 0 m/S 750 mmHg 95%
    06:00 +15°C° 0 mm 0 m/S 750 mmHg 94%
    07:00 +16°C° 0 mm 0 m/S 751 mmHg 92%
    08:00 +18°C° 0.1 mm 1 m/S 751 mmHg 92%
    09:00 +18°C° 0.1 mm 1 m/S 751 mmHg 91%
    10:00 +17°C° 0 mm 2 m/S 752 mmHg 93%
    11:00 +17°C° 0.1 mm 2 m/S 751 mmHg 90%
    12:00 +18°C° 0.1 mm 2 m/S 751 mmHg 87%
    13:00 +18°C° 0.1 mm 2 m/S 751 mmHg 84%
    14:00 +18°C° 0 mm 2 m/S 751 mmHg 82%
    15:00 +18°C° 0 mm 2 m/S 751 mmHg 81%
    16:00 +18°C° 0 mm 3 m/S 751 mmHg 82%
    17:00 +17°C° 0 mm 2 m/S 752 mmHg 84%
    18:00 +16°C° 0 mm 2 m/S 752 mmHg 86%
    19:00 +16°C° 0 mm 2 m/S 752 mmHg 89%
    20:00 +15°C° 0 mm 2 m/S 752 mmHg 89%
    21:00 +15°C° 0 mm 2 m/S 753 mmHg 90%
    22:00 +15°C° 0 mm 1 m/S 753 mmHg 90%
    23:00 +15°C° 0 mm 1 m/S 753 mmHg 91%

    Morgen, 22 März, Freitag

    Zeit Temperatur Niederschläge Wind Luftdruck Luftfeuchtigkeit
    00:00 +15°C° 0 mm 1 m/S 753 mmHg 91%
    01:00 +14°C° 0 mm 1 m/S 752 mmHg 92%
    02:00 +13°C° 0 mm 0 m/S 752 mmHg 93%
    03:00 +13°C° 0 mm 0 m/S 752 mmHg 94%
    04:00 +13°C° 0 mm 0 m/S 752 mmHg 95%
    05:00 +13°C° 0 mm 0 m/S 752 mmHg 94%
    06:00 +13°C° 0 mm 0 m/S 752 mmHg 93%
    07:00 +13°C° 0 mm 0 m/S 753 mmHg 92%
    08:00 +14°C° 0.1 mm 0 m/S 752 mmHg 87%
    09:00 +15°C° 0.1 mm 0 m/S 752 mmHg 82%
    10:00 +16°C° 0.1 mm 0 m/S 752 mmHg 77%
    11:00 +19°C° 0.1 mm 1 m/S 752 mmHg 77%
    12:00 +19°C° 0.1 mm 1 m/S 752 mmHg 77%
    13:00 +19°C° 0.1 mm 1 m/S 751 mmHg 77%
    14:00 +19°C° 0 mm 1 m/S 751 mmHg 77%
    15:00 +20°C° 0 mm 1 m/S 750 mmHg 78%
    16:00 +19°C° 0 mm 2 m/S 750 mmHg 79%
    17:00 +18°C° 0 mm 2 m/S 750 mmHg 84%
    18:00 +17°C° 0 mm 2 m/S 750 mmHg 89%
    19:00 +16°C° 0 mm 2 m/S 750 mmHg 94%
    20:00 +16°C° 0.1 mm 2 m/S 750 mmHg 93%
    21:00 +16°C° 0.1 mm 2 m/S 750 mmHg 93%
    22:00 +16°C° 0.1 mm 2 m/S 750 mmHg 92%
    23:00 +16°C° 0 mm 2 m/S 749 mmHg 92%

    übermorgen, 23 März, Samstag

    Zeit Temperatur Niederschläge Wind Luftdruck Luftfeuchtigkeit
    00:00 +16°C° 0 mm 2 m/S 749 mmHg 92%
    01:00 +16°C° 0 mm 2 m/S 748 mmHg 92%
    02:00 +15°C° 0 mm 2 m/S 747 mmHg 93%
    03:00 +15°C° 0 mm 2 m/S 747 mmHg 94%
    04:00 +15°C° 0 mm 2 m/S 746 mmHg 95%
    05:00 +15°C° 0 mm 2 m/S 746 mmHg 94%
    06:00 +14°C° 0 mm 3 m/S 746 mmHg 93%
    07:00 +14°C° 0 mm 3 m/S 745 mmHg 92%
    08:00 +16°C° 0 mm 3 m/S 745 mmHg 84%
    09:00 +18°C° 0 mm 3 m/S 745 mmHg 76%
    10:00 +19°C° 0 mm 3 m/S 744 mmHg 68%
    11:00 +21°C° 0 mm 3 m/S 744 mmHg 61%
    12:00 +24°C° 0 mm 3 m/S 743 mmHg 53%
    13:00 +25°C° 0 mm 4 m/S 742 mmHg 45%
    14:00 +25°C° 0 mm 3 m/S 741 mmHg 48%
    15:00 +25°C° 0 mm 3 m/S 741 mmHg 52%
    16:00 +25°C° 0 mm 3 m/S 740 mmHg 55%
    17:00 +22°C° 0 mm 3 m/S 740 mmHg 64%
    18:00 +20°C° 0 mm 2 m/S 740 mmHg 74%
    19:00 +18°C° 0 mm 2 m/S 740 mmHg 83%
    20:00 +18°C° 0.1 mm 2 m/S 740 mmHg 84%
    21:00 +18°C° 0.1 mm 2 m/S 740 mmHg 85%
    22:00 +18°C° 0.1 mm 2 m/S 740 mmHg 86%
    23:00 +18°C° 0 mm 2 m/S 740 mmHg 87%

    24 März, Sonntag

    Zeit Temperatur Niederschläge Wind Luftdruck Luftfeuchtigkeit
    00:00 +18°C° 0 mm 2 m/S 740 mmHg 87%
    01:00 +19°C° 0 mm 1 m/S 740 mmHg 88%
    02:00 +18°C° 0 mm 1 m/S 740 mmHg 89%
    03:00 +16°C° 0 mm 1 m/S 740 mmHg 91%
    04:00 +15°C° 0 mm 1 m/S 740 mmHg 93%
    05:00 +15°C° 0 mm 1 m/S 741 mmHg 92%
    06:00 +15°C° 0 mm 1 m/S 741 mmHg 92%
    07:00 +14°C° 0 mm 1 m/S 742 mmHg 91%
    08:00 +16°C° 0 mm 2 m/S 742 mmHg 79%
    09:00 +19°C° 0 mm 2 m/S 742 mmHg 67%
    10:00 +21°C° 0 mm 2 m/S 743 mmHg 55%
    11:00 +23°C° 0 mm 2 m/S 742 mmHg 52%
    12:00 +23°C° 0 mm 2 m/S 742 mmHg 49%
    13:00 +24°C° 0 mm 1 m/S 741 mmHg 47%
    14:00 +24°C° 0 mm 2 m/S 741 mmHg 45%
    15:00 +25°C° 0 mm 2 m/S 740 mmHg 44%
    16:00 +25°C° 0 mm 2 m/S 739 mmHg 42%
    17:00 +24°C° 0 mm 3 m/S 739 mmHg 51%
    18:00 +21°C° 0 mm 3 m/S 739 mmHg 61%
    19:00 +19°C° 0 mm 3 m/S 738 mmHg 70%
    20:00 +19°C° 0 mm 3 m/S 738 mmHg 70%
    21:00 +18°C° 0 mm 4 m/S 737 mmHg 71%
    22:00 +18°C° 0 mm 4 m/S 736 mmHg 72%
    23:00 +17°C° 0 mm 5 m/S 734 mmHg 71%

    25 März, Montag

    Zeit Temperatur Niederschläge Wind Luftdruck Luftfeuchtigkeit
    00:00 +19°C° 0 mm 6 m/S 733 mmHg 70%
    01:00 +20°C° 0 mm 6 m/S 731 mmHg 69%
    02:00 +19°C° 0.7 mm 6 m/S 731 mmHg 74%
    03:00 +16°C° 0.7 mm 5 m/S 731 mmHg 78%
    04:00 +15°C° 0.7 mm 4 m/S 730 mmHg 82%
    05:00 +14°C° 0 mm 4 m/S 731 mmHg 82%
    06:00 +13°C° 0 mm 4 m/S 731 mmHg 81%
    07:00 +12°C° 0 mm 4 m/S 731 mmHg 81%
    08:00 +11°C° 0.1 mm 6 m/S 731 mmHg 74%
    09:00 +11°C° 0.1 mm 7 m/S 731 mmHg 66%
    10:00 +11°C° 0.1 mm 8 m/S 731 mmHg 59%
    11:00 +12°C° 0 mm 9 m/S 730 mmHg 51%
    12:00 +13°C° 0 mm 10 m/S 730 mmHg 44%
    13:00 +14°C° 0 mm 11 m/S 729 mmHg 36%
    14:00 +13°C° 0.4 mm 11 m/S 728 mmHg 43%
    15:00 +13°C° 0.4 mm 11 m/S 728 mmHg 50%
    16:00 +12°C° 0.4 mm 11 m/S 728 mmHg 57%
    17:00 +12°C° 0.1 mm 10 m/S 729 mmHg 61%
    18:00 +12°C° 0.1 mm 10 m/S 730 mmHg 64%
    19:00 +12°C° 0.1 mm 9 m/S 732 mmHg 68%
    20:00 +11°C° 0 mm 8 m/S 733 mmHg 68%
    21:00 +11°C° 0 mm 8 m/S 735 mmHg 68%
    22:00 +11°C° 0 mm 7 m/S 736 mmHg 68%
    23:00 +10°C° 0.1 mm 7 m/S 737 mmHg 66%

    26 März, Dienstag

    Zeit Temperatur Niederschläge Wind Luftdruck Luftfeuchtigkeit
    00:00 +10°C° 0.1 mm 7 m/S 738 mmHg 65%
    01:00 +9°C° 0.1 mm 7 m/S 739 mmHg 63%
    02:00 +9°C° 0 mm 7 m/S 739 mmHg 64%
    03:00 +8°C° 0 mm 6 m/S 740 mmHg 65%
    04:00 +8°C° 0 mm 6 m/S 740 mmHg 66%
    05:00 +8°C° 0 mm 6 m/S 741 mmHg 65%
    06:00 +9°C° 0 mm 6 m/S 742 mmHg 64%
    07:00 +9°C° 0 mm 6 m/S 743 mmHg 63%
    08:00 +10°C° 0 mm 7 m/S 744 mmHg 56%
    09:00 +12°C° 0 mm 7 m/S 744 mmHg 50%
    10:00 +13°C° 0 mm 8 m/S 745 mmHg 43%
    11:00 +15°C° 0.1 mm 7 m/S 746 mmHg 44%
    12:00 +15°C° 0.1 mm 7 m/S 746 mmHg 44%
    13:00 +15°C° 0.1 mm 7 m/S 747 mmHg 45%
    14:00 +15°C° 0 mm 6 m/S 747 mmHg 46%
    15:00 +14°C° 0 mm 6 m/S 748 mmHg 47%
    16:00 +14°C° 0 mm 5 m/S 749 mmHg 48%
    17:00 +13°C° 0 mm 4 m/S 750 mmHg 55%
    18:00 +11°C° 0 mm 4 m/S 751 mmHg 61%
    19:00 +9°C° 0 mm 3 m/S 752 mmHg 68%
    20:00 +9°C° 0 mm 2 m/S 752 mmHg 73%
    21:00 +8°C° 0 mm 2 m/S 753 mmHg 77%
    22:00 +7°C° 0 mm 2 m/S 753 mmHg 82%
    23:00 +7°C° 0 mm 2 m/S 753 mmHg 84%
    Mehr zeigen